Regional Weather Roundup
Issued by NWS

Home | Current Version | Previous Version | Graphics & Text | Print | Product List | Glossary Off
Versions: 1 2 3 4 5 6 7 8 9 10 11 12 13 14 15 16 17 18 19 20 21 22 23 24 25 26 27 28 29 30 31 32 33 34 35 36 37 38 39 40 41 42 43 44 45 46 47 48 49 50

000
ASUS43 KMKX 260711
RWRWI

WISCONSIN REGIONAL WEATHER ROUNDUP
NATIONAL WEATHER SERVICE MILWAUKEE/SULLIVAN WI
200 AM CDT WED JUL 26 2017

NOTE: "FAIR" INDICATES FEW OR NO CLOUDS BELOW 12,000 FEET WITH NO
SIGNIFICANT WEATHER AND/OR OBSTRUCTIONS TO VISIBILITY.

WIZ001-002-006>008-014>016-023>028-260800-
NORTHWEST WISCONSIN

CITY           SKY/WX    TMP DP  RH WIND       PRES   REMARKS
SUPERIOR ARPT  NOT AVBL
ASHLAND        CLOUDY    69  68  96 S5        29.93F
HAYWARD        MOCLDY    70  68  93 SW6       29.97F
SIREN          CLOUDY    71  70  97 S6        29.96F
CUMBERLAND     CLOUDY    66  64  94 CALM      29.99F
RICE LAKE      CLOUDY    70  67  92 SE5       30.00F
CHETEK         LGT RAIN  70  69  96 CALM      29.99F
LADYSMITH      LGT RAIN  71  67  89 S7        30.03S
EAU CLAIRE     RAIN      70  69  97 E5        30.01F FOG
MENOMONIE      CLOUDY    71  70  95 CALM      30.01F
NEW RICHMOND   CLOUDY    74  72  93 SW6       30.01R
OSCEOLA        DRIZZLE   74  74 100 S5        30.01R
$$

WIZ003>005-009-010-017-018-260800-
NORTH CENTRAL WISCONSIN

CITY           SKY/WX    TMP DP  RH WIND       PRES   REMARKS
MANITOWISH WTR CLOUDY    67  67 100 S5        30.00F
ARBOR VITAE    CLOUDY    69  66  90 SW6       30.01F
WOODRUFF       CLOUDY    69  66  90 SW6       30.01F
RHINELANDER    CLOUDY    69  66  90 W8        30.03F
EAGLE RIVER    CLOUDY    68  65  90 SW7       30.02F
LAND O LAKES   CLOUDY    68  64  86 S5        30.02F
PHILLIPS       LGT RAIN  70  67  92 SW8       30.02S
TOMAHAWK         N/A     67  64  89 CALM      30.03F
MEDFORD        LGT RAIN  68  66  92 SW3       30.05S
MERRILL        NOT AVBL
$$

WIZ029-030-035-036-043>047-260800-
CENTRAL WISCONSIN

CITY           SKY/WX    TMP DP  RH WIND       PRES   REMARKS
WAUSAU         CLOUDY    69  65  86 S12       30.03F
MOSINEE        RAIN      66  64  94 S12       30.06F
MARSHFIELD     CLOUDY    67  65  93 S9        30.02F
STEVENS POINT  LGT RAIN  67  65  93 S10       30.05F
WAUPACA        CLOUDY    69  63  79 S5        30.06F
WAUTOMA        MOCLDY    68  63  84 S5        30.07F
WISC RAPIDS    LGT RAIN  69  65  86 S8        30.06F
CAMP DOUGLAS   CLOUDY    70  67  91 S3        30.05S
$$

WIZ011>013-019>022-031-037>040-048>050-260800-
NORTHEAST WISCONSIN

CITY           SKY/WX    TMP DP  RH WIND       PRES   REMARKS
ANTIGO         CLOUDY    64  64  97 S8        30.06F
SHAWANO        CLOUDY    70  62  76 S5        30.05F
OCONTO         CLOUDY    68  60  76 S6        30.05F
STURGEON BAY     N/A     68  61  78 S12       30.06F
GREEN BAY      CLOUDY    67  62  84 S9        30.07S
MANITOWOC      CLOUDY    69  60  73 S10       30.09S
APPLETON       CLOUDY    68  57  68 S10       30.06S
CLINTONVILLE   CLOUDY   N/A N/A N/A S6        30.06F
OSHKOSH        CLOUDY    66  61  84 S8        30.07F
$$

WIZ032>034-041-042-053>061-260800-
SOUTHWEST WISCONSIN

CITY           SKY/WX    TMP DP  RH WIND       PRES   REMARKS
LA CROSSE      CLOUDY    76  69  79 SE6       30.01F
SPARTA         CLOUDY    71  66  86 CALM      30.05S
VIROQUA        CLOUDY    70  68  95 S7        30.06F
BOSCOBEL       CLOUDY    73  67  81 SW3       30.05F
PRAIRIE DU CHI CLOUDY    74  65  74 CALM      30.04F
PLATTEVILLE    CLOUDY    69  68  99 S7        30.08F
$$

WIZ056-057-062-063-064-067-068-260800-
SOUTH CENTRAL WISCONSIN

CITY           SKY/WX    TMP DP  RH WIND       PRES   REMARKS
REEDSBURG      CLOUDY    69  68  94 S5        30.06F
BARABOO/DELLS  CLOUDY    70  62  75 S10       30.06F
LONE ROCK      CLOUDY    71  67  87 CALM      30.06F
MINERAL POINT  CLOUDY    68  68 100 SE8       30.09F
MADISON        CLOUDY    70  62  76 S8        30.09S
MIDDLETON        N/A     70  62  76 S7        30.09F
WATERTOWN      CLOUDY    66  64  93 S6        30.10F
MONROE         CLOUDY    68  61  77 S10       30.10S
JANESVILLE     MOCLDY    68  61  77 SE3       30.10S
$$

WIZ051-052-058>065-066-070>072-260800-
SOUTHEAST WISCONSIN

CITY           SKY/WX    TMP DP  RH WIND       PRES   REMARKS
MILWAUKEE      CLOUDY    70  61  73 CALM      30.14R
WAUKESHA       CLOUDY    64  55  72 S6        30.15R
MILWAUKEE/TIMM PTCLDY    68  55  64 S3        30.14R
RACINE         PTCLDY    70  60  70 S7        30.15R
KENOSHA        CLOUDY    68  59  73 S6        30.13R
FOND DU LAC    CLOUDY    67  60  78 S7        30.09F
SHEBOYGAN      PTCLDY    66  63  90 S8        30.10F
WEST BEND      CLOUDY    64  59  82 S5        30.11F
JUNEAU         CLOUDY    66  61  85 SE7       30.11F
$$

LSZ147-162-260800-
LAKE SUPERIOR

STATION/POSITION TIME  TEMP    WIND        PRES    WAVE
                       AIR SEA DIR/SP/G            HT/PER
                 (UTC) (F)     (DEG/KT/KT) (MB)    (FT/S)
W MID LAKE BUOY  0650   58 52  240/  8/ 10 1012.3F   1/ 3
DEVILS ISLAND    0600   66     230/ 15/ 17 1013.3R
PORT WING        0620   67     260/  5/ 19 1013.9
SAXON HARBOR     0640   73     170/  3/  7 1012.9F
$$

LMZ867-665-643>646-260800-
LAKE MICHIGAN

STATION/POSITION TIME  TEMP    WIND        PRES    WAVE
                       AIR SEA DIR/SP/G            HT/PER
                 (UTC) (F)     (DEG/KT/KT) (MB)    (FT/S)
CHAMBERS ISLAND  0640   70     170/  8/ 15 1016.6F
S GREEN BAY BUOY 0700   71 72  190/ 17/ 23 1017.1
N MID LAKE BUOY  0650   68 66  210/ 17/ 21 1019.1R   3/ 5
NORTHPORT PIER   0640   67     160/  9/ 14 1017.6S
KEWAUNEE LAKESHO 0648   69     200/  8/ 10 1017.8R
SHEBOYGAN LAKESH 0700   70     190/ 18/ 19 1018.4F
PORT WASHINGTON  0630   70     200/  3/  5 1021.0R
ATWATER BUOY     0509   70 68  160/ 12/ 16 1019.2F
MILWAUKEE LAKESH 0650   71     190/  6/  7   N/A
S MID LAKE BUOY  0650   72 71  170/ 12/ 14 1020.1R   1/ 3
KENOSHA   LAKESH 0700   71     180/  6/  8 1020.0
$$

TC  - TEMPERATURE IN CELSIUS
VSB - VISIBILITY IN STATUTE MILES
WCI - WIND CHILL INDEX
HX  - HEAT INDEX




USA.gov is the U.S. government's official web portal to all federal, state and local government web resources and services.